Wind_Speed
2 1 2 2 1 1 1 2 3 3 3 4 4 5 7 8 8 7 7 8 8 7 7 7 7 7 8 8 8 8 8 8 9 9 9 8 8 8 8 8 8 8 8
2 1 1 1 2 2 2 2 2 3 3 4 5 6 7 6 7 7 8 8 9 8 8 8 9 8 9 9 9 9 10 10 10 10 10 10 10 10 9 9 9 9 9
3 2 1 0 1 2 2 2 2 3 4 5 5 6 6 7 8 8 8 9 9 9 9 9 10 10 10 10 11 11 11 11 11 11 12 12 12 11 11 11 11 11 11
3 3 2 1 1 1 2 2 3 3 4 5 5 6 7 8 8 8 9 9 10 10 10 10 10 11 11 11 12 12 12 12 12 12 12 13 13 13 13 13 13 12 13
3 3 2 2 1 1 2 2 3 4 4 5 5 6 7 8 8 8 8 9 10 10 11 11 11 10 11 12 12 13 13 13 13 13 13 13 14 14 14 14 14 14 14
4 4 3 3 2 2 2 3 4 4 5 6 7 7 8 7 7 8 8 9 9 10 11 12 11 11 12 12 12 13 14 14 14 15 14 15 15 16 16 16 15 16 15
4 4 4 4 3 3 3 4 5 5 6 7 7 7 8 7 8 8 8 9 9 10 10 11 12 12 12 12 12 13 14 14 14 15 16 16 17 17 17 17 16 16 17
4 4 4 4 4 4 4 4 5 6 7 7 7 7 7 8 9 8 9 9 9 9 10 10 11 11 12 12 13 14 15 15 16 16 17 17 17 18 18 18 18 18 18
5 4 5 4 5 5 4 4 5 5 6 6 7 7 7 7 8 9 9 9 10 10 11 11 11 12 12 13 13 14 15 16 17 17 18 19 19 19 19 20 20 20 20
6 5 5 4 5 6 5 5 6 6 7 7 7 7 7 8 8 9 9 9 10 11 12 12 12 12 13 14 14 15 15 16 17 18 18 18 18 19 20 19 20 21 21
6 6 6 6 7 7 6 6 6 6 6 7 7 8 8 9 9 10 10 11 11 12 12 12 13 13 14 14 15 15 16 16 17 18 19 20 20 21 21 20 21 22 22
6 6 6 7 7 7 7 6 6 7 7 7 8 8 9 10 10 10 10 10 11 12 13 13 13 14 14 15 16 17 17 18 18 19 21 21 21 21 21 21 22 22 22
6 6 7 7 7 8 7 7 7 7 8 8 8 9 9 10 11 11 11 11 11 12 13 13 14 14 15 15 16 17 18 19 19 20 20 21 21 22 23 23 22 22 23
7 8 8 8 9 8 8 8 8 8 8 9 9 10 10 11 12 12 13 13 13 13 13 14 15 15 15 16 17 18 19 20 20 21 21 21 21 23 23 22 22 22 23
9 9 9 10 10 10 9 9 10 10 10 10 11 11 12 12 13 13 14 14 15 15 15 15 16 16 16 17 18 19 20 21 21 21 22 22 22 22 23 23 23 23 23
10 10 10 11 11 10 11 11 11 12 12 12 12 13 13 14 14 15 15 15 15 15 16 17 17 17 17 18 19 20 21 22 21 21 22 22 22 22 23 23 23 23 23
11 12 12 12 12 12 13 13 13 13 13 13 13 14 15 15 15 16 16 16 16 16 16 17 17 18 19 19 20 21 21 21 21 21 21 21 22 22 22 23 22 22 22
13 13 13 13 13 14 14 14 14 15 15 15 15 15 16 16 16 16 17 17 17 17 17 17 17 18 18 19 20 21 21 21 21 21 21 21 21 21 22 22 22 22 22
14 14 14 14 14 14 15 15 15 15 16 16 16 16 16 16 16 17 17 17 17 17 17 18 18 19 19 19 20 20 20 20 20 21 21 22 21 21 21 22 22 22 21
15 15 15 15 15 16 16 16 16 17 17 17 17 17 17 17 17 17 17 17 18 18 18 18 18 19 20 20 20 20 20 20 20 20 21 21 21 21 21 22 22 21 22
16 17 17 17 17 17 18 18 19 19 19 19 18 18 19 18 18 18 19 19 19 19 19 19 19 19 19 19 19 20 20 20 21 21 20 20 21 21 21 22 22 23 23
18 18 18 19 19 19 19 20 20 19 19 20 20 19 20 20 20 20 20 20 20 20 20 20 19 19 19 19 19 20 19 20 20 20 20 20 20 20 21 21 21 22 23
19 19 20 20 21 21 21 21 21 21 21 21 21 21 22 22 22 21 22 22 22 22 22 21 21 20 20 20 20 20 20 20 20 20 20 20 20 19 20 20 21 21 22
20 21 21 22 22 22 22 22 22 22 22 22 22 22 23 23 23 23 23 23 23 24 23 23 23 22 22 22 22 22 22 21 21 21 21 20 20 20 20 20 21 22 23
22 23 23 23 23 23 23 23 24 24 24 24 24 24 24 25 24 24 24 25 25 25 25 25 25 25 24 24 24 24 23 23 23 22 22 22 22 22 21 21 22 23 24
24 24 24 24 24 24 25 25 25 25 26 26 26 26 26 25 25 25 26 25 25 25 26 26 27 26 26 25 25 25 25 24 23 23 23 23 24 24 23 23 23 24 25
Wind_Direction
132 177 191 184 193 221 226 234 228 224 218 220 223 219 216 221 227 227 231 237 239 241 245 242 240 242 240 242 238 241 244 246 245 248 248 246 249 251 254 253 254 258 261
86 106 179 211 224 236 241 240 233 237 244 242 238 229 224 230 232 233 235 239 243 246 248 247 247 247 243 244 246 245 245 247 250 252 250 249 252 254 256 256 258 259 261
71 65 75 102 234 234 235 245 260 247 247 247 244 239 240 244 242 246 243 244 246 249 252 251 250 251 245 245 247 245 246 247 250 254 251 251 252 253 254 256 259 260 260
69 60 50 20 299 242 245 254 261 263 259 259 260 258 254 248 249 250 250 250 251 252 253 254 251 247 244 247 248 247 249 250 252 255 252 251 251 253 255 258 259 261 261
62 57 44 15 346 303 270 266 268 268 267 268 266 264 260 256 253 256 258 256 255 252 252 254 248 248 247 249 248 248 250 251 253 253 251 254 253 253 256 260 261 260 262
47 38 27 3 340 319 299 287 283 282 280 276 271 268 264 263 262 270 269 260 258 254 253 254 253 252 252 251 251 251 251 252 254 252 251 254 256 256 257 260 261 260 261
32 30 23 7 355 331 302 290 286 287 288 284 277 274 268 269 271 273 275 270 264 257 256 256 255 255 255 254 256 256 254 254 257 255 253 254 256 258 259 258 259 260 262
22 16 12 5 358 345 321 296 291 286 286 282 279 280 278 276 276 274 274 274 271 265 263 261 255 257 261 260 261 260 258 258 257 256 258 256 256 259 259 258 259 261 263
21 14 12 4 353 346 334 324 307 293 291 288 284 284 281 282 282 284 280 275 273 272 267 269 269 265 264 265 266 266 265 264 263 260 261 259 256 255 258 260 259 261 263
19 9 358 351 342 338 331 323 315 307 303 297 289 282 283 289 287 286 286 282 281 278 271 269 269 266 264 265 266 268 269 269 265 263 262 262 262 260 262 262 262 262 262
4 -0 355 348 341 333 326 319 317 314 309 302 294 287 285 288 286 286 284 280 280 277 274 273 268 265 267 269 269 270 270 271 268 265 264 263 263 263 264 263 265 265 263
354 351 348 342 338 334 329 322 318 314 310 306 299 292 289 289 287 285 283 281 280 278 276 273 271 269 269 272 272 271 272 271 270 269 267 265 264 266 266 268 268 268 267
342 343 341 337 335 334 329 321 317 313 310 305 300 293 289 292 289 287 282 279 279 279 279 276 275 275 275 276 276 274 274 273 271 271 270 268 266 267 267 267 267 266 267
331 333 334 333 331 330 327 321 315 313 311 307 302 299 294 292 291 289 284 281 279 276 276 276 276 277 277 276 277 276 276 274 274 273 271 269 268 268 268 266 266 265 265
322 325 326 325 324 325 323 318 313 311 309 306 301 298 296 294 291 291 290 288 282 277 275 275 275 276 277 278 278 278 277 276 276 272 271 271 270 269 268 266 266 266 265
317 317 317 316 316 318 320 317 314 310 308 305 303 300 298 297 295 293 292 290 289 284 279 276 275 276 278 278 278 279 279 278 276 273 273 272 272 270 269 267 267 267 265
313 310 312 315 315 314 315 314 312 310 307 305 305 303 300 297 296 294 292 291 289 286 284 281 281 280 280 281 280 280 282 279 277 276 275 273 271 270 269 267 266 266 266
310 308 310 311 311 311 310 309 308 308 307 303 302 302 301 297 295 294 290 289 288 285 283 281 281 284 285 283 284 284 284 282 278 278 278 277 273 270 268 267 266 266 266
311 309 307 306 307 310 310 309 307 306 306 304 302 301 299 296 294 293 292 289 288 287 284 284 283 283 282 284 285 285 285 284 282 280 278 277 275 271 269 268 267 267 267
307 308 307 306 306 307 306 306 306 305 303 303 301 298 296 295 293 293 291 289 289 288 288 288 287 286 284 284 284 283 283 284 284 283 281 278 275 272 270 269 267 268 268
302 303 303 303 303 303 302 301 302 301 300 301 301 297 295 294 292 292 291 289 288 288 287 287 288 289 287 287 285 283 282 283 283 284 282 280 276 273 270 268 267 268 268
301 300 299 299 300 300 299 300 300 300 299 300 300 296 294 294 293 291 291 290 290 288 286 285 285 288 289 288 286 285 284 284 283 282 282 280 277 275 274 272 270 270 271
300 299 297 297 297 297 297 297 297 297 297 298 298 295 293 292 292 291 291 289 288 288 286 285 286 287 286 287 286 286 285 285 283 284 283 282 280 277 275 274 274 275 275
298 297 296 295 296 295 296 296 296 296 295 296 295 296 294 291 291 290 290 289 288 286 285 284 285 285 285 285 285 284 283 282 282 281 281 282 281 278 278 278 278 278 279
295 294 294 295 294 294 295 295 296 296 295 294 294 294 293 293 291 290 289 288 286 285 283 282 283 283 283 283 283 282 281 280 280 279 279 279 280 280 279 279 280 281 280
293 293 293 294 295 294 294 294 294 294 294 294 293 292 291 292 292 290 289 287 285 285 284 283 283 282 280 280 280 280 280 279 278 277 277 277 278 279 280 281 281 282 282
Height
5885 5885 5885 5885 5885 5885 5885 5885 5885 5885 5885 5886 5886 5886 5887 5887 5888 5888 5889 5889 5889 5890 5890 5890 5890 5890 5891 5891 5891 5891 5891 5892 5892 5892 5892 5892 5893 5893 5893 5893 5893 5893 5893
5885 5885 5885 5885 5885 5885 5885 5885 5885 5885 5885 5885 5885 5885 5886 5886 5886 5887 5887 5888 5888 5888 5888 5888 5888 5888 5889 5889 5889 5889 5889 5889 5890 5890 5890 5890 5890 5891 5891 5891 5891 5891 5891
5885 5885 5885 5885 5884 5885 5885 5885 5885 5885 5885 5885 5885 5885 5885 5885 5885 5885 5885 5886 5886 5886 5886 5886 5886 5886 5886 5887 5887 5887 5887 5887 5887 5887 5888 5888 5888 5888 5888 5888 5889 5889 5888
5885 5885 5885 5884 5884 5884 5884 5884 5884 5884 5884 5884 5883 5883 5883 5883 5884 5884 5884 5884 5884 5884 5884 5884 5884 5883 5884 5884 5884 5884 5884 5884 5885 5885 5885 5885 5885 5886 5886 5886 5886 5886 5886
5885 5885 5885 5884 5884 5884 5884 5884 5884 5883 5883 5883 5882 5882 5882 5882 5882 5882 5882 5882 5882 5882 5882 5881 5881 5881 5881 5881 5881 5881 5881 5881 5881 5882 5882 5882 5882 5882 5883 5883 5883 5883 5883
5886 5885 5885 5884 5883 5883 5883 5883 5883 5882 5882 5881 5881 5881 5880 5880 5880 5880 5880 5879 5879 5879 5879 5879 5879 5879 5878 5878 5878 5878 5878 5878 5878 5878 5878 5879 5879 5879 5879 5879 5879 5879 5879
5886 5885 5885 5884 5883 5883 5882 5882 5881 5881 5880 5880 5879 5879 5879 5878 5878 5878 5877 5877 5877 5876 5876 5876 5876 5876 5875 5875 5875 5875 5875 5875 5875 5875 5875 5875 5875 5875 5875 5875 5875 5876 5876
5886 5885 5884 5883 5883 5882 5881 5880 5880 5879 5879 5878 5877 5877 5877 5877 5876 5875 5875 5875 5874 5874 5874 5874 5873 5873 5873 5872 5872 5872 5872 5872 5871 5871 5871 5871 5871 5871 5871 5871 5871 5871 5871
5885 5885 5884 5883 5882 5881 5880 5879 5878 5877 5877 5876 5875 5875 5875 5874 5873 5873 5872 5872 5872 5871 5871 5871 5870 5870 5870 5870 5869 5868 5868 5868 5867 5867 5867 5866 5866 5866 5866 5866 5866 5867 5867
5885 5884 5883 5882 5881 5880 5879 5877 5876 5875 5875 5874 5873 5873 5873 5872 5872 5871 5870 5869 5868 5868 5868 5868 5867 5866 5866 5866 5865 5865 5864 5864 5863 5863 5862 5862 5862 5861 5861 5861 5861 5861 5861
5884 5883 5882 5881 5879 5878 5877 5876 5875 5874 5873 5872 5871 5870 5870 5869 5869 5868 5867 5867 5866 5865 5865 5864 5864 5863 5862 5862 5862 5861 5860 5860 5859 5859 5858 5857 5857 5856 5856 5856 5856 5856 5855
5883 5882 5881 5879 5878 5877 5875 5874 5873 5872 5871 5870 5869 5868 5867 5866 5866 5865 5864 5863 5863 5862 5861 5860 5860 5859 5858 5858 5857 5856 5855 5854 5854 5853 5853 5852 5852 5851 5851 5850 5850 5850 5849
5882 5881 5879 5878 5876 5875 5873 5872 5871 5870 5868 5867 5866 5865 5864 5863 5862 5862 5861 5860 5859 5859 5857 5856 5855 5855 5854 5853 5852 5851 5850 5849 5849 5848 5847 5846 5846 5845 5845 5844 5844 5844 5843
5881 5879 5878 5876 5874 5873 5871 5870 5869 5867 5866 5864 5863 5862 5861 5860 5859 5858 5857 5856 5855 5855 5854 5852 5851 5850 5850 5849 5847 5846 5845 5844 5843 5842 5841 5840 5840 5839 5838 5838 5838 5838 5837
5879 5878 5876 5874 5873 5871 5869 5868 5866 5865 5863 5862 5860 5859 5858 5856 5855 5854 5853 5852 5851 5850 5849 5848 5847 5846 5845 5844 5842 5841 5840 5838 5837 5836 5835 5834 5834 5833 5833 5832 5832 5831 5831
5877 5875 5874 5872 5870 5869 5867 5865 5863 5862 5860 5859 5857 5855 5854 5853 5851 5849 5848 5847 5846 5845 5844 5843 5842 5841 5840 5839 5837 5835 5834 5832 5831 5830 5829 5828 5827 5827 5826 5826 5825 5825 5825
5874 5872 5870 5869 5867 5866 5864 5862 5860 5858 5857 5855 5853 5851 5850 5848 5847 5845 5844 5842 5841 5840 5839 5838 5836 5835 5834 5833 5831 5829 5828 5826 5825 5824 5822 5821 5821 5820 5820 5819 5819 5818 5818
5870 5869 5867 5865 5864 5862 5860 5858 5856 5854 5853 5851 5849 5847 5845 5844 5842 5841 5839 5838 5836 5835 5834 5832 5831 5830 5828 5827 5825 5823 5821 5820 5818 5817 5816 5815 5814 5813 5813 5813 5812 5812 5811
5867 5865 5863 5861 5860 5858 5856 5854 5852 5850 5848 5846 5844 5842 5841 5839 5837 5836 5834 5833 5831 5830 5828 5827 5826 5824 5822 5821 5819 5817 5816 5814 5812 5811 5810 5809 5808 5807 5807 5806 5806 5806 5805
5863 5861 5859 5857 5856 5854 5852 5850 5848 5846 5843 5841 5839 5837 5836 5834 5832 5831 5829 5827 5826 5824 5823 5821 5820 5818 5816 5815 5813 5811 5810 5808 5806 5805 5803 5802 5801 5801 5800 5800 5800 5799 5799
5859 5857 5855 5853 5851 5849 5847 5845 5843 5841 5838 5836 5834 5832 5830 5829 5827 5825 5824 5822 5820 5819 5817 5816 5814 5812 5810 5809 5807 5805 5803 5802 5800 5798 5797 5796 5795 5794 5794 5793 5793 5792 5792
5855 5853 5850 5848 5846 5844 5842 5840 5838 5836 5833 5831 5829 5827 5825 5823 5821 5820 5818 5816 5814 5813 5811 5810 5808 5806 5805 5803 5801 5799 5797 5796 5794 5792 5791 5790 5789 5788 5787 5786 5786 5785 5785
5849 5847 5845 5843 5841 5838 5836 5834 5832 5830 5828 5826 5823 5821 5819 5817 5815 5813 5812 5810 5808 5806 5805 5804 5802 5800 5798 5797 5795 5793 5791 5790 5788 5786 5785 5784 5782 5781 5781 5780 5779 5778 5778
5844 5842 5840 5837 5835 5832 5830 5828 5826 5824 5822 5820 5817 5815 5813 5811 5808 5807 5805 5803 5801 5800 5798 5796 5795 5793 5791 5790 5788 5786 5785 5783 5782 5781 5779 5778 5776 5775 5774 5773 5772 5772 5771
5838 5835 5833 5831 5829 5826 5824 5822 5820 5817 5815 5813 5811 5808 5806 5804 5801 5799 5798 5796 5794 5792 5790 5789 5787 5785 5784 5782 5781 5779 5778 5776 5775 5774 5773 5772 5770 5769 5768 5767 5766 5765 5764
5831 5829 5827 5824 5822 5820 5817 5815 5813 5810 5808 5806 5803 5801 5798 5796 5794 5792 5790 5788 5786 5784 5782 5780 5779 5777 5775 5774 5773 5771 5770 5769 5768 5767 5766 5765 5763 5762 5761 5760 5759 5757 5756